Burley, ID

7:00 AM MDT on March 27, 2017 (GMT -0600)
Burley Municipal

Weather History for KBYI - November, 2012

Change the Weather History Date:

Friday, November 16, 2012

  Actual Average Record
Temperature  
Mean Temperature 43 °F 35 °F  
Max Temperature 53 °F 45 °F 69 °F (1999)
Min Temperature 33 °F 26 °F -12 °F (1955)
Degree Days  
Heating Degree Days 22 30  
Month to date heating degree days 369 421  
Since 1 July heating degree days 957 1229  
Cooling Degree Days 0 0  
Month to date cooling degree days 0 0  
Year to date cooling degree days 546 365  
Moisture  
Dew Point 32 °F    
Average Humidity 69    
Maximum Humidity 92    
Minimum Humidity 46    
Precipitation  
Precipitation T in 0.03 in 0.12 in (1962)
Month to date precipitation 0.35 0.47  
Year to date precipitation 7.83 8.54  
Sea Level Pressure  
Sea Level Pressure 30.05 in    
Wind  
Wind Speed 6 mph (NE)    
Max Wind Speed 24 mph    
Max Gust Speed 29 mph    
Visibility 10 miles    
Events      
T = Trace of Precipitation, MM = Missing Value Source: NWS Daily Summary

Daily Weather History Graph

Daily Weather History Graph

Search for Another Location

Airport or City:

Trip Planner

Search our weather history database for the weather conditions in past years. The results will help you decide how hot, cold, wet, or windy it might be!

Date:

Astronomy

Nov. 16, 2012 Rise Set
Actual Time 7:28 AM MST 5:11 PM MST
Civil Twilight 6:57 AM MST 5:41 PM MST
Nautical Twilight 6:23 AM MST 6:15 PM MST
Astronomical Twilight 5:50 AM MST 6:49 PM MST
Moon 10:27 AM MST (11/16) 8:14 PM MST (11/16)
Length of Visible Light 10h 43m
Length of Day
9h 42m
Waxing Crescent, 12% of the Moon is Illuminated
Nov 16
Waxing Crescent
Nov 20
First Quarter
Nov 28
Full
Dec 6
Last Quarter
Dec 13
New

Hourly Weather History & Observations

Time (MST) Temp. Windchill Dew Point Humidity Pressure Visibility Wind Dir Wind Speed Gust Speed Precip Events Conditions
12:53 AM 33.1 °F 21.2 °F 28.9 °F 85% 30.09 in 10.0 mi NE 20.7 mph 28.8 mph N/A   Clear
1:53 AM 34.0 °F 24.6 °F 28.9 °F 82% 30.07 in 10.0 mi ENE 13.8 mph - N/A   Clear
2:53 AM 34.0 °F 25.5 °F 28.9 °F 82% 30.07 in 10.0 mi NE 11.5 mph - N/A   Clear
3:53 AM 34.0 °F 23.8 °F 28.0 °F 79% 30.04 in 10.0 mi ENE 16.1 mph - N/A   Clear
4:53 AM 34.0 °F 25.5 °F 28.9 °F 82% 30.04 in 10.0 mi East 11.5 mph 19.6 mph N/A   Scattered Clouds
5:53 AM 35.1 °F 29.3 °F 28.9 °F 78% 30.04 in 10.0 mi ENE 6.9 mph - N/A   Scattered Clouds
6:53 AM 35.1 °F 27.4 °F 28.9 °F 78% 30.04 in 10.0 mi ENE 10.4 mph - N/A   Mostly Cloudy
7:53 AM 35.1 °F 31.0 °F 28.9 °F 78% 30.07 in 10.0 mi ENE 4.6 mph - N/A   Overcast
8:53 AM 36.0 °F 33.3 °F 30.0 °F 79% 30.09 in 10.0 mi WNW 3.5 mph - N/A   Overcast
9:53 AM 37.0 °F 33.3 °F 30.9 °F 79% 30.09 in 10.0 mi North 4.6 mph - N/A   Overcast
10:53 AM 39.0 °F 34.8 °F 33.1 °F 79% 30.09 in 10.0 mi NNW 5.8 mph - N/A   Overcast
11:53 AM 43.0 °F 41.3 °F 34.0 °F 71% 30.07 in 10.0 mi ESE 3.5 mph - N/A   Overcast
12:53 PM 45.0 °F - 34.0 °F 65% 30.04 in 10.0 mi Calm Calm - N/A   Overcast
1:53 PM 48.0 °F - 34.0 °F 58% 30.02 in 10.0 mi Calm Calm - N/A   Overcast
2:53 PM 53.1 °F - 34.0 °F 48% 29.99 in 10.0 mi North 6.9 mph - N/A   Mostly Cloudy
3:53 PM 50.0 °F - 33.1 °F 52% 30.01 in 10.0 mi NE 4.6 mph - N/A   Clear
4:53 PM 46.9 °F - 34.0 °F 61% 30.01 in 10.0 mi North 4.6 mph - N/A   Mostly Cloudy
5:53 PM 45.0 °F 41.8 °F 34.0 °F 65% 30.01 in 10.0 mi NNE 5.8 mph - N/A   Overcast
6:53 PM 43.0 °F - 35.1 °F 74% 30.03 in 10.0 mi Calm Calm - N/A   Overcast
7:53 PM 43.0 °F - 35.1 °F 74% 30.03 in 10.0 mi Calm Calm - 0.00 in   Overcast
8:53 PM 37.9 °F - 34.0 °F 86% 30.05 in 10.0 mi Calm Calm - N/A   Mostly Cloudy
9:53 PM 37.0 °F - 35.1 °F 93% 30.06 in 10.0 mi Calm Calm - N/A   Scattered Clouds
10:53 PM 39.0 °F 35.7 °F 35.1 °F 86% 30.05 in 10.0 mi ESE 4.6 mph - N/A   Overcast
11:53 PM 43.0 °F 38.8 °F 32.0 °F 65% 30.03 in 10.0 mi South 6.9 mph - N/A   Scattered Clouds